Location: Campo Claro
(10.4907°N, 66.8285°W)
Time: 09:03:23
(UTC+00:00)

Cosmos 2322 Rocket - Pass Details

Date: 08 December 2021
Orbit: 831 x 852 km, 71.0° (Epoch: 24 January)

Event Time Altitude Azimuth Distance (km) Brightness Sun altitude
Rises 22:38:52 0° 20° (NNE) 3,408 5.0 -8.5°
Enters shadow 22:42:01 - 41° (NE) 2,693 4.3 -9.2°
Exits shadow 22:50:26 - 116° (ESE) 3,238 4.8 -11.1°
Sets 22:51:03 0° 119° (ESE) 3,405 5.0 -11.2°
